SCP
0 0 0 0 0 0 0 0 0 0 0 0 0 0 0 0 0 0 0 0 0 0 0 0 0 0 0 0 0 0 0 0 0 0 0 0 0 0 0 0 0 0 0
0 0 0 0 0 0 0 0 0 0 0 0 0 0 0 0 0 0 0 0 0 0 0 0 0 0 0 0 0 0 0 0 0 0 0 0 0 0 0 0 0 0 0
0 0 0 0 0 0 0 0 0 0 0 0 0 0 0 0 0 0 0 0 0 0 0 0 0 0 0 0 0 0 0 0 0 0 0 0 0 0 0 0 0 0 0
0 0 0 0 0 0 0 0 0 0 0 0 0 0 0 0 0 0 0 0 0 0 0 0 0 0 0 0 0 0 0 0 0 0 0 0 0 0 0 0 0 0 0
0 0 0 0 0 0 0 0 0 0 0 0 0 0 0 0 0 0 0 0 0 0 0 0 0 0 0 0 0 0 0 0 0 0 0 0 0 0 0 0 0 0 0
0 0 0 0 0 0 0 0 0 0 0 0 0 0 0 0 0 0 0 0 0 0 0 0 0 0 0 0 0 0 0 0 0 0 0 0 0 0 0 0 0 0 0
0 0 0 0 0 0 0 0 0 0 0 0 0 0 0 0 0 0 0 0 0 0 0 0 0 0 0 0 0 0 0 0 0 0 0 0 0 0 0 0 0 0 0
0 0 0 0 0 0 0 0 0 0 0 0 0 0 0 0 0 0 0 0 0 0 0 0 0 0 0 0 0 0 0 0 0 0 0 0 0 0 0 0 0 0 0
0 0 0 0 0 0 0 0 0 0 0 0 0 0 0 0 0 0 0 0 0 0 0 0 0 0 0 0 0 0 0 0 0 0 0 0 0 0 0 0 0 0 0
0 0 0 0 0 0 0 0 0 0 0 0 0 0 0 0 0 0 0 0 0 0 0 0 0 0 0 0 0 0 0 0 0 0 0 0 0 0 0 0 0 0 0
0 0 0 0 0 0 0 0 0 0 0 0 0 0 0 0 0 0 0 0 0 0 0 0 0 0 0 0 0 0 0 0 0 0 0 0 0 0 0 0 0 0 0
0 0 0 0 0 -0 0 0 0 0 0 0 0 0 0 0 0 0 0 0 0 0 0 0 0 0 0 0 0 0 0 0 0 0 0 0 0 0 0 0 0 0 0
0 0 0 0 0 0 0 0 0 0 0 0 0 0 0 0 0 0 0 0 0 0 0 0 0 0 0 0 0 0 0 0 0 0 0 0 0 0 0 0 0 0 0
0 0 0 0 0 0 0 0 0 0 0 0 0 0 0 0 0 0 0 0 0 0 0 0 0 0 0 0 0 0 0 0 0 0 0 0 0 0 0 0 0 0 0
0 0 0 0 0 0 0 0 0 0 0 0 0 0 0 0 0 0 0 0 0 0 0 0 0 0 0 0 0 0 0 0 0 0 0 0 0 0 0 0 0 0 0
0 0 0 0 0 0 0 0 0 0 0 0 0 0 0 0 0 0 0 0 0 0 0 0 0 0 0 0 0 0 0 0 0 0 0 0 0 0 0 0 0 0 0
0 0 0 0 0 0 0 0 0 0 0 0 0 0 0 0 0 0 0 0 0 0 0 0 0 0 0 0 0 0 0 0 0 0 0 0 0 0 0 0 0 0 0
0 0 0 0 0 0 0 0 0 0 0 0 0 0 0 0 0 0 0 0 0 0 0 0 0 0 0 0 0 0 0 0 0 0 0 0 0 0 0 0 0 0 0
0 0 0 0 0 0 0 0 0 0 0 0 0 0 0 0 0 0 0 0 0 0 0 0 0 0 0 0 0 0 0 0 0 0 0 0 0 0 0 0 0 0 0
0 0 0 0 0 0 0 0 0 0 0 0 0 0 0 0 0 0 0 0 0 0 0 0 0 0 0 0 0 0 0 0 0 0 0 0 0 0 0 0 0 0 0
0 0 0 0 0 0 0 0 0 0 0 0 0 0 0 0 0 0 0 0 0 0 0 0 0 0 0 0 0 0 0 0 0 0 0 0 0 0 0 0 0 0 0
0 0 0 0 0 0 0 0 0 0 0 0 0 0 0 0 0 0 0 0 0 0 0 0 0 0 0 0 0 0 0 0 0 0 0 0 0 0 0 0 0 0 0
0 0 0 0 0 0 0 0 0 0 0 0 0 0 0 0 0 0 0 0 0 0 0 0 0 0 0 0 0 0 0 0 0 0 0 0 0 0 0 0 0 0 0
0 0 0 0 0 0 0 0 0 0 0 0 0 0 0 0 0 0 0 0 0 0 0 0 0 0 0 0 0 0 0 0 0 0 0 0 0 0 0 0 0 0 0
0 0 0 0 0 0 0 0 0 0 0 0 0 0 0 0 0 0 0 0 0 0 0 0 0 0 0 0 0 0 0 0 0 0 0 0 0 0 0 0 0 0 0
0 0 0 0 0 0 0 0 0 0 0 0 0 0 0 0 0 0 0 0 0 0 0 0 0 0 0 0 0 0 0 0 0 0 0 0 0 0 0 0 0 0 0
Wind_Speed
15 13 13 13 13 13 14 16 17 17 15 13 13 12 13 13 12 12 15 17 16 17 15 11 12 12 11 11 12 10 10 8 6 5 6 7 8 9 7 7 7 8 8
14 12 11 11 13 14 15 16 17 17 17 14 14 13 13 12 12 11 14 17 17 17 14 15 12 13 11 13 13 11 8 7 7 6 5 5 6 7 7 7 7 8 7
14 12 11 11 12 13 14 14 17 18 18 17 13 10 10 9 11 13 13 16 18 18 17 17 15 14 13 12 14 13 13 10 9 9 7 5 5 3 5 7 7 7 7
12 12 11 11 11 12 12 14 16 17 17 17 16 17 14 15 17 14 13 16 18 19 18 18 17 15 13 14 14 14 12 12 9 8 9 8 5 5 4 5 6 7 8
11 11 11 11 11 10 10 12 14 16 17 18 18 18 18 16 13 14 16 16 16 18 19 18 17 16 14 15 15 15 15 12 11 9 7 9 7 8 7 6 5 6 7
10 10 10 9 9 8 8 10 12 14 16 18 19 20 21 19 17 17 15 14 13 14 19 19 17 17 15 16 16 15 17 14 14 11 9 8 7 8 8 9 8 7 5
8 8 8 8 7 7 8 9 11 13 14 17 18 19 21 21 20 18 16 15 13 13 17 18 18 17 17 16 16 15 15 16 16 14 11 10 10 8 8 9 8 8 5
7 7 7 7 7 7 8 8 11 12 13 15 16 17 19 16 15 18 15 15 13 14 16 18 18 18 18 16 16 14 15 14 15 15 14 10 10 9 8 8 7 7 7
8 8 7 6 6 7 7 8 10 11 12 13 15 15 17 17 17 17 16 14 14 12 16 17 17 18 17 17 16 13 15 14 14 14 14 12 9 9 9 8 8 8 7
8 8 7 6 6 6 6 7 8 10 11 11 12 11 14 16 16 15 16 16 15 14 15 16 17 17 17 17 16 14 14 15 14 11 13 13 10 9 8 8 8 8 8
9 9 8 7 6 5 5 5 6 7 8 9 10 12 12 13 14 14 16 15 14 15 15 16 16 16 17 16 16 15 15 16 15 13 14 14 12 9 8 8 8 8 8
9 9 8 7 6 6 6 5 5 5 7 7 9 10 11 11 13 14 15 15 15 15 15 15 15 16 16 16 16 16 15 16 16 15 14 14 11 13 10 9 10 9 9
11 9 8 8 7 7 6 6 6 5 5 6 7 8 9 11 12 13 13 14 14 14 14 15 15 15 15 15 15 15 15 15 15 15 15 14 14 14 11 11 10 8 7
11 10 9 9 8 7 7 7 7 6 5 5 6 7 9 9 10 11 12 13 13 14 14 14 14 14 14 14 14 14 14 14 14 13 13 14 14 14 13 11 11 9 8
11 10 9 10 9 8 7 7 7 6 5 5 6 7 8 8 8 9 10 11 12 13 13 13 13 13 12 12 13 13 13 13 13 13 13 12 13 13 11 9 9 9 8
11 10 10 10 10 9 8 7 7 6 6 6 6 6 6 7 8 8 9 9 10 11 12 12 12 13 10 12 14 13 12 12 13 12 11 11 12 12 13 13 13 12 10
11 11 11 10 10 9 9 8 8 7 5 6 6 6 6 7 7 7 8 9 9 10 11 11 12 12 12 13 15 15 12 11 11 11 10 7 8 11 10 11 12 11 11
11 11 10 10 10 9 9 8 7 6 6 6 6 5 5 6 6 7 8 8 7 8 9 10 10 11 10 12 14 15 12 10 10 10 10 10 10 10 10 8 8 7 8
10 10 10 10 10 9 9 8 7 6 6 6 6 5 5 5 6 7 7 7 6 7 7 8 9 9 9 11 13 13 10 8 9 9 9 9 9 11 12 9 8 7 5
9 9 10 10 9 8 7 7 7 6 6 6 6 6 5 5 6 6 6 5 5 6 5 6 7 8 8 10 12 13 7 7 7 6 7 9 9 11 13 10 9 8 7
10 10 9 9 8 8 6 6 6 7 7 6 6 5 5 5 5 5 4 4 4 5 5 5 6 7 8 9 12 13 7 7 7 6 6 6 11 12 12 10 8 8 7
11 10 8 8 7 7 6 6 7 7 6 5 5 5 5 4 3 3 4 4 4 5 5 5 5 5 5 7 10 13 10 8 7 6 5 5 11 11 11 8 7 9 8
10 8 8 8 7 6 6 7 7 6 6 5 5 5 4 4 3 3 3 3 4 4 4 4 5 4 4 5 8 11 11 9 6 5 7 8 10 9 8 8 9 9 6
8 7 7 7 7 7 6 6 6 6 5 5 5 5 4 4 3 3 3 3 4 4 4 4 4 4 4 4 5 6 7 8 6 5 7 9 9 6 6 7 6 5 5
7 7 7 7 8 7 6 6 5 5 5 5 5 4 4 4 3 3 2 3 4 4 4 4 4 5 5 6 7 6 6 6 6 6 5 4 5 4 4 4 4 4 4
7 7 7 7 7 7 7 6 5 5 5 5 4 3 3 3 3 2 2 2 2 2 3 4 4 3 4 5 7 8 8 9 11 7 6 5 5 5 5 5 5 4 4
Wind_Direction
260 254 245 236 228 222 218 213 209 208 204 200 201 205 208 206 207 208 208 207 206 204 206 207 208 206 209 210 212 212 214 217 214 223 237 239 237 239 237 235 235 231 228
264 257 245 235 227 222 217 214 211 207 205 205 203 206 208 207 208 207 210 209 209 207 206 209 208 206 211 213 213 210 212 212 204 216 231 243 228 219 226 228 230 235 225
264 261 250 239 229 225 221 216 213 210 207 206 205 205 209 207 207 209 209 210 210 209 207 209 210 208 210 213 212 208 211 211 205 213 218 230 236 222 206 219 225 227 226
259 259 256 246 236 231 224 221 218 214 210 206 205 204 205 206 208 207 208 209 209 210 210 210 211 211 211 213 213 210 211 214 210 208 225 240 259 246 234 210 219 225 231
259 258 257 252 244 237 228 222 220 217 212 208 208 210 214 214 213 208 210 210 209 211 211 211 211 212 212 214 213 210 211 212 215 207 205 221 232 242 249 250 230 224 228
263 261 260 257 251 242 231 225 222 220 215 211 212 214 216 215 214 211 209 209 208 209 212 211 211 212 212 213 213 212 212 213 216 214 210 207 209 214 224 240 246 244 232
274 271 269 262 256 247 236 228 225 223 218 216 216 218 219 217 217 215 213 210 209 208 210 208 211 212 213 213 212 213 213 214 216 216 216 217 224 222 224 236 247 251 244
292 287 286 278 267 256 243 234 230 228 223 220 221 222 221 219 221 220 217 214 213 212 209 208 212 213 212 211 211 212 213 214 216 219 219 220 222 221 222 229 238 248 246
304 300 296 290 286 275 257 243 237 234 229 226 224 224 223 220 221 221 220 219 218 214 211 208 211 213 213 211 209 212 212 213 215 217 218 220 220 219 221 225 227 236 251
325 328 318 312 309 303 287 261 246 242 237 231 228 227 227 225 223 221 220 219 218 214 212 210 210 211 212 211 210 212 213 213 214 213 215 218 219 219 219 220 222 227 239
329 329 328 328 329 326 316 298 271 255 246 238 234 233 232 229 226 223 222 220 219 215 214 211 209 210 210 209 210 211 210 212 213 212 215 217 216 216 216 215 217 222 228
326 325 325 327 330 325 316 308 297 277 259 247 240 237 236 232 229 227 224 220 219 217 215 213 211 211 211 209 209 210 210 211 213 213 214 217 214 217 216 214 217 220 222
321 321 322 325 326 323 316 306 300 292 281 263 247 243 240 236 233 233 227 221 218 217 215 213 213 212 210 210 211 211 212 213 216 215 215 216 214 217 216 215 217 219 219
311 315 316 316 320 319 317 309 303 296 285 272 258 248 243 241 239 236 231 224 218 216 214 213 213 211 210 209 209 210 213 215 217 218 218 218 217 217 215 214 216 214 213
306 311 314 314 315 314 313 312 306 299 289 274 263 257 253 248 244 238 232 226 219 215 214 212 211 210 209 209 207 208 211 215 217 218 219 220 218 217 214 210 209 206 209
302 305 309 310 311 309 308 307 304 299 289 277 270 270 264 253 244 240 234 227 223 216 211 212 211 211 210 203 201 204 209 213 215 216 218 217 214 213 212 211 210 205 205
297 301 304 308 309 307 304 301 299 298 287 280 278 271 260 253 249 242 234 227 224 220 214 213 213 214 211 198 196 200 208 213 216 216 213 211 210 207 211 209 206 210 212
295 299 304 307 309 308 304 301 298 295 288 283 281 278 268 256 249 242 236 230 223 221 217 214 214 216 212 196 196 195 206 214 216 214 211 209 207 205 201 198 201 210 214
298 300 302 303 305 307 308 306 300 296 293 292 289 285 275 263 249 241 237 231 222 221 222 216 212 214 210 194 193 190 206 212 213 212 209 205 205 196 185 187 194 201 208
298 301 305 306 306 308 310 305 301 299 294 293 291 287 277 264 253 244 239 232 223 221 220 221 216 214 213 193 187 187 200 205 206 205 204 201 201 191 183 190 192 197 198
303 304 305 305 306 311 308 301 300 299 303 304 299 295 286 272 263 252 240 226 215 214 216 218 219 214 211 192 186 189 199 198 197 198 197 196 189 190 190 194 199 197 186
304 305 304 305 311 314 308 302 303 308 310 306 299 298 296 287 271 253 240 218 205 210 214 212 215 214 205 199 193 194 200 196 195 196 193 188 186 190 191 194 189 176 170
304 305 305 305 308 313 310 303 309 315 311 306 301 299 298 289 268 249 233 215 206 209 215 210 212 207 200 195 190 194 197 193 192 187 179 179 181 184 188 185 176 169 166
305 304 305 304 307 315 315 307 312 313 309 306 303 300 297 295 284 260 233 217 213 211 212 215 214 209 198 192 187 191 190 183 173 163 162 164 167 169 174 173 169 168 170
302 303 302 301 304 312 313 314 313 310 307 304 304 307 305 297 292 279 264 244 236 232 225 220 210 203 208 203 190 184 184 180 172 155 150 157 163 165 162 158 155 155 157
298 299 301 303 305 308 310 314 313 307 302 301 304 306 303 296 291 291 301 301 258 256 250 246 230 224 215 186 183 183 174 164 158 152 161 169 173 172 167 163 160 162 167